| time (UTC) | temp F | wind direction | speed MPH | gust MPH | rain 1hr in | rain 24hr in | rain mn in | humidity % | barometer mb |
| 20260503225106 | 55 | 41 | 1.0 | 5.0 | 0.00 | 0.00 | 0.00 | 78 | 1014.1 |
| 20260503224605 | 55 | 49 | 3.0 | 3.0 | 0.00 | 0.00 | 0.00 | 78 | 1014.0 |
| 20260503224105 | 56 | 50 | 3.0 | 5.0 | 0.00 | 0.00 | 0.00 | 78 | 1013.9 |
| 20260503223605 | 56 | 46 | 3.0 | 5.0 | 0.00 | 0.00 | 0.00 | 77 | 1013.9 |
| 20260503223106 | 56 | 28 | 2.0 | 3.0 | 0.00 | 0.00 | 0.00 | 77 | 1014.1 |
| 20260503222605 | 56 | 355 | 1.0 | 2.0 | 0.00 | 0.00 | 0.00 | 77 | 1014.0 |
| 20260503222105 | 56 | 14 | 2.0 | 3.0 | 0.00 | 0.00 | 0.00 | 76 | 1013.9 |
| 20260503221105 | 57 | 7 | 2.0 | 3.0 | 0.00 | 0.00 | 0.00 | 75 | 1013.8 |
| 20260503220605 | 57 | 314 | 2.0 | 5.0 | 0.00 | 0.00 | 0.00 | 74 | 1013.8 |
| 20260503220106 | 56 | 0 | 1.0 | 3.0 | 0.00 | 0.00 | 0.00 | 74 | 1013.7 |
| 20260503215605 | 57 | 329 | 2.0 | 3.0 | 0.00 | 0.00 | 0.00 | 74 | 1013.7 |
| 20260503215105 | 57 | 323 | 1.0 | 5.0 | 0.00 | 0.00 | 0.00 | 74 | 1013.7 |
| 20260503214606 | 57 | 301 | 2.0 | 3.0 | 0.00 | 0.00 | 0.00 | 73 | 1013.7 |
| 20260503214106 | 57 | 331 | 1.0 | 3.0 | 0.00 | 0.00 | 0.00 | 73 | 1013.7 |
| 20260503213605 | 57 | 36 | 2.0 | 5.0 | 0.00 | 0.00 | 0.00 | 73 | 1013.8 |
| 20260503213105 | 57 | 28 | 2.0 | 5.0 | 0.00 | 0.00 | 0.00 | 72 | 1013.5 |
| 20260503211605 | 58 | 19 | 3.0 | 8.0 | 0.00 | 0.00 | 0.00 | 71 | 1013.4 |
| 20260503211105 | 58 | 309 | 3.0 | 5.0 | 0.00 | 0.00 | 0.00 | 71 | 1013.4 |
| 20260503210605 | 58 | 15 | 3.0 | 5.0 | 0.00 | 0.00 | 0.00 | 70 | 1013.3 |
| 20260503205606 | 58 | 340 | 3.0 | 7.0 | 0.00 | 0.00 | 0.00 | 69 | 1013.0 |
| 20260503205106 | 59 | 330 | 3.0 | 10.0 | 0.00 | 0.00 | 0.00 | 69 | 1013.3 |
| 20260503204605 | 59 | 298 | 6.0 | 12.0 | 0.00 | 0.00 | 0.00 | 68 | 1013.1 |
| 20260503204105 | 59 | 310 | 3.0 | 10.0 | 0.00 | 0.00 | 0.00 | 68 | 1013.0 |
| 20260503203605 | 59 | 318 | 5.0 | 12.0 | 0.00 | 0.00 | 0.00 | 67 | 1013.0 |
| 20260503203106 | 59 | 328 | 5.0 | 12.0 | 0.00 | 0.00 | 0.00 | 67 | 1012.6 |
| 20260503202605 | 60 | 303 | 7.0 | 12.0 | 0.00 | 0.00 | 0.00 | 66 | 1012.7 |
| 20260503202105 | 60 | 330 | 6.0 | 12.0 | 0.00 | 0.00 | 0.00 | 66 | 1012.7 |
| 20260503201606 | 60 | 322 | 6.0 | 13.0 | 0.00 | 0.00 | 0.00 | 65 | 1012.5 |
| 20260503200605 | 61 | 308 | 5.0 | 9.0 | 0.00 | 0.00 | 0.00 | 65 | 1012.2 |
| 20260503200105 | 61 | 339 | 3.0 | 8.0 | 0.00 | 0.00 | 0.00 | 65 | 1012.1 |
| 20260503195606 | 61 | 17 | 3.0 | 8.0 | 0.00 | 0.00 | 0.00 | 65 | 1011.9 |
| 20260503194605 | 61 | 310 | 6.0 | 13.0 | 0.00 | 0.00 | 0.00 | 64 | 1011.9 |
| 20260503194105 | 61 | 291 | 4.0 | 9.0 | 0.00 | 0.00 | 0.00 | 63 | 1011.7 |
| 20260503193605 | 62 | 300 | 4.0 | 9.0 | 0.00 | 0.00 | 0.00 | 63 | 1011.5 |
| 20260503192605 | 62 | 317 | 5.0 | 10.0 | 0.00 | 0.00 | 0.00 | 62 | 1011.3 |
| 20260503192106 | 62 | 324 | 3.0 | 9.0 | 0.00 | 0.00 | 0.00 | 62 | 1011.2 |
| 20260503191605 | 62 | 308 | 7.0 | 12.0 | 0.00 | 0.00 | 0.00 | 61 | 1010.9 |
| 20260503191105 | 63 | 348 | 4.0 | 10.0 | 0.00 | 0.00 | 0.00 | 61 | 1011.0 |
| 20260503190606 | 63 | 315 | 7.0 | 14.0 | 0.00 | 0.00 | 0.00 | 59 | 1010.8 |
| 20260503190105 | 64 | 297 | 5.0 | 12.0 | 0.00 | 0.00 | 0.00 | 59 | 1010.7 |
| 20260503184605 | 64 | 275 | 5.0 | 13.0 | 0.00 | 0.00 | 0.00 | 66 | 1010.3 |
| 20260503183106 | 64 | 254 | 5.0 | 8.0 | 0.00 | 0.00 | 0.00 | 67 | 1010.3 |
| 20260503182605 | 64 | 283 | 2.0 | 6.0 | 0.00 | 0.00 | 0.00 | 66 | 1010.1 |
| 20260503182106 | 65 | 282 | 4.0 | 7.0 | 0.00 | 0.00 | 0.00 | 65 | 1010.2 |
| 20260503181608 | 65 | 281 | 5.0 | 8.0 | 0.00 | 0.00 | 0.00 | 65 | 1010.3 |
| 20260503181106 | 65 | 246 | 5.0 | 10.0 | 0.00 | 0.00 | 0.00 | 65 | 1010.1 |
| 20260503180605 | 65 | 234 | 6.0 | 9.0 | 0.00 | 0.00 | 0.00 | 64 | 1010.1 |
| 20260503180105 | 65 | 231 | 5.0 | 9.0 | 0.00 | 0.00 | 0.00 | 64 | 1010.1 |
| 20260503175605 | 65 | 217 | 7.0 | 12.0 | 0.00 | 0.00 | 0.00 | 63 | 1009.9 |
| 20260503175105 | 66 | 205 | 5.0 | 13.0 | 0.00 | 0.00 | 0.00 | 62 | 1009.9 |
| 20260503174606 | 66 | 207 | 5.0 | 13.0 | 0.00 | 0.00 | 0.00 | 62 | 1010.0 |
| 20260503173105 | 65 | 200 | 6.0 | 10.0 | 0.00 | 0.00 | 0.00 | 62 | 1010.0 |
| 20260503172605 | 65 | 223 | 6.0 | 9.0 | 0.00 | 0.00 | 0.00 | 63 | 1009.9 |
| 20260503172104 | 65 | 221 | 5.0 | 6.0 | 0.00 | 0.00 | 0.00 | 63 | 1010.1 |
| 20260503171605 | 65 | 196 | 6.0 | 10.0 | 0.00 | 0.00 | 0.00 | 63 | 1010.1 |
| 20260503171104 | 65 | 206 | 5.0 | 9.0 | 0.00 | 0.00 | 0.00 | 63 | 1010.0 |
| 20260503170605 | 65 | 251 | 3.0 | 6.0 | 0.00 | 0.00 | 0.00 | 64 | 1010.1 |
| 20260503160105 | 65 | 318 | 5.0 | 9.0 | 0.00 | 0.00 | 0.00 | 64 | 1010.2 |
| 20260503150605 | 65 | 336 | 6.0 | 10.0 | 0.00 | 0.00 | 0.00 | 63 | 1010.4 |
| 20260503150104 | 65 | 323 | 4.0 | 8.0 | 0.00 | 0.00 | 0.00 | 62 | 1010.4 |
| 20260503140106 | 66 | 277 | 4.0 | 7.0 | 0.00 | 0.00 | 0.00 | 60 | 1010.7 |
| 20260503130605 | 68 | 241 | 10.0 | 20.0 | 0.00 | 0.00 | 0.00 | 49 | 1010.9 |
| 20260503130105 | 68 | 230 | 8.0 | 16.0 | 0.00 | 0.00 | 0.00 | 52 | 1010.7 |
| 20260503120106 | 67 | 190 | 12.0 | 21.0 | 0.00 | 0.00 | 0.00 | 52 | 1011.1 |
| 20260503110604 | 67 | 215 | 9.0 | 18.0 | 0.00 | 0.00 | 0.00 | 54 | 1011.9 |
| 20260503100104 | 64 | 202 | 12.0 | 18.0 | 0.00 | 0.00 | 0.00 | 65 | 1012.7 |
| 20260503090105 | 61 | 206 | 11.0 | 16.0 | 0.00 | 0.00 | 0.00 | 74 | 1012.9 |
| 20260503081604 | 59 | 250 | 6.0 | 8.0 | 0.00 | 0.00 | 0.00 | 83 | 1013.6 |
| 20260503081106 | 60 | 235 | 4.0 | 5.0 | 0.00 | 0.00 | 0.00 | 83 | 1013.5 |
| 20260503080604 | 59 | 210 | 3.0 | 6.0 | 0.00 | 0.00 | 0.00 | 84 | 1013.5 |
| 20260503080104 | 59 | 209 | 3.0 | 7.0 | 0.00 | 0.00 | 0.00 | 84 | 1013.6 |
| 20260503072604 | 58 | 219 | 1.0 | 5.0 | 0.00 | 0.00 | 0.00 | 88 | 1013.8 |
| 20260503072104 | 58 | 275 | 2.0 | 5.0 | 0.00 | 0.00 | 0.00 | 87 | 1013.6 |
| 20260503071604 | 58 | 237 | 3.0 | 5.0 | 0.00 | 0.00 | 0.00 | 86 | 1013.7 |
| 20260503070606 | 58 | 195 | 2.0 | 5.0 | 0.00 | 0.00 | 0.00 | 86 | 1013.7 |
| 20260503070104 | 58 | 211 | 2.0 | 5.0 | 0.00 | 0.00 | 0.00 | 86 | 1013.5 |
| 20260503060106 | 56 | 153 | 2.0 | 3.0 | 0.00 | 0.00 | 0.00 | 91 | 1013.5 |
| 20260503055107 | 56 | 354 | 2.0 | 5.0 | 0.00 | 0.00 | 0.00 | 90 | 1013.6 |
| 20260503054107 | 56 | 8 | 1.0 | 2.0 | 0.00 | 0.00 | 0.00 | 90 | 1013.6 |
| 20260503052606 | 56 | 315 | 2.0 | 3.0 | 0.00 | 0.00 | 0.00 | 88 | 1013.5 |
| 20260503052106 | 56 | 304 | 2.0 | 3.0 | 0.00 | 0.00 | 0.00 | 88 | 1013.5 |
| 20260503051606 | 56 | 61 | 2.0 | 5.0 | 0.00 | 0.00 | 0.00 | 88 | 1013.6 |
| 20260503051106 | 56 | 44 | 4.0 | 6.0 | 0.00 | 0.00 | 0.00 | 87 | 1013.7 |
| 20260503050607 | 56 | 308 | 1.0 | 2.0 | 0.00 | 0.00 | 0.00 | 87 | 1013.6 |
| 20260503050106 | 57 | 268 | 2.0 | 5.0 | 0.00 | 0.00 | 0.00 | 86 | 1013.4 |
| 20260503045606 | 57 | 223 | 2.0 | 5.0 | 0.00 | 0.00 | 0.00 | 86 | 1013.3 |
| 20260503044606 | 56 | 56 | 0.0 | 3.0 | 0.00 | 0.00 | 0.00 | 86 | 1013.3 |
| 20260503044105 | 56 | 91 | 2.0 | 5.0 | 0.00 | 0.00 | 0.00 | 86 | 1013.2 |
| 20260503043607 | 56 | 79 | 2.0 | 3.0 | 0.00 | 0.00 | 0.00 | 86 | 1013.6 |
| 20260503043106 | 57 | 223 | 1.0 | 3.0 | 0.00 | 0.00 | 0.00 | 85 | 1013.6 |
| 20260503042606 | 57 | 276 | 2.0 | 3.0 | 0.00 | 0.00 | 0.00 | 85 | 1013.4 |
| 20260503042106 | 56 | 201 | 1.0 | 3.0 | 0.00 | 0.00 | 0.00 | 86 | 1013.3 |
| 20260503041607 | 56 | 106 | 2.0 | 6.0 | 0.00 | 0.00 | 0.00 | 86 | 1013.4 |
| 20260503040606 | 57 | 318 | 3.0 | 5.0 | 0.00 | 0.00 | 0.00 | 83 | 1013.7 |
| 20260503035607 | 57 | 161 | 6.0 | 9.0 | 0.00 | 0.00 | 0.00 | 82 | 1013.1 |
| 20260503035106 | 57 | 133 | 5.0 | 8.0 | 0.00 | 0.00 | 0.00 | 81 | 1013.3 |
| 20260503034605 | 57 | 157 | 3.0 | 6.0 | 0.00 | 0.00 | 0.00 | 81 | 1013.2 |
| 20260503034105 | 57 | 121 | 3.0 | 5.0 | 0.00 | 0.00 | 0.00 | 82 | 1013.6 |
| 20260503033607 | 57 | 144 | 2.0 | 3.0 | 0.00 | 0.00 | 0.00 | 82 | 1013.5 |
| 20260503033105 | 57 | 179 | 3.0 | 5.0 | 0.00 | 0.00 | 0.00 | 81 | 1013.6 |
| 20260503032606 | 57 | 187 | 2.0 | 2.0 | 0.00 | 0.00 | 0.00 | 82 | 1013.8 |
| 20260503031607 | 57 | 150 | 1.0 | 5.0 | 0.00 | 0.00 | 0.00 | 81 | 1013.7 |
| 20260503031106 | 57 | 135 | 2.0 | 5.0 | 0.00 | 0.00 | 0.00 | 82 | 1013.7 |
| 20260503030606 | 57 | 159 | 3.0 | 6.0 | 0.00 | 0.00 | 0.00 | 82 | 1013.7 |
| 20260503030106 | 57 | 171 | 3.0 | 5.0 | 0.00 | 0.00 | 0.00 | 81 | 1013.6 |
| 20260503025605 | 57 | 154 | 0.0 | 2.0 | 0.00 | 0.00 | 0.00 | 82 | 1013.8 |
| 20260503024105 | 57 | 71 | 2.0 | 3.0 | 0.00 | 0.00 | 0.00 | 82 | 1013.6 |
| 20260503023606 | 57 | 53 | 1.0 | 2.0 | 0.00 | 0.00 | 0.00 | 82 | 1013.7 |
| 20260503023105 | 57 | 35 | 2.0 | 5.0 | 0.00 | 0.00 | 0.00 | 81 | 1013.5 |
| 20260503022607 | 57 | 81 | 3.0 | 5.0 | 0.00 | 0.00 | 0.00 | 82 | 1013.6 |
| 20260503022106 | 58 | 74 | 3.0 | 5.0 | 0.00 | 0.00 | 0.00 | 83 | 1013.7 |
| 20260503021605 | 58 | 321 | 2.0 | 3.0 | 0.00 | 0.00 | 0.00 | 81 | 1013.9 |
| 20260503021106 | 58 | 60 | 1.0 | 3.0 | 0.00 | 0.00 | 0.00 | 79 | 1013.5 |
| 20260503020605 | 58 | 123 | 2.0 | 3.0 | 0.00 | 0.00 | 0.00 | 80 | 1013.7 |
| 20260503020107 | 58 | 153 | 1.0 | 2.0 | 0.00 | 0.00 | 0.00 | 80 | 1013.9 |
| 20260503015605 | 58 | 165 | 1.0 | 5.0 | 0.00 | 0.00 | 0.00 | 81 | 1013.9 |
| 20260503015106 | 58 | 131 | 1.0 | 2.0 | 0.00 | 0.00 | 0.00 | 81 | 1013.7 |
| 20260503014105 | 58 | 184 | 2.0 | 3.0 | 0.00 | 0.00 | 0.00 | 81 | 1014.0 |
| 20260503013605 | 58 | 164 | 2.0 | 2.0 | 0.00 | 0.00 | 0.00 | 81 | 1014.0 |
| 20260503013106 | 58 | 176 | 2.0 | 3.0 | 0.00 | 0.00 | 0.00 | 81 | 1014.0 |
| 20260503012607 | 58 | 204 | 2.0 | 5.0 | 0.00 | 0.00 | 0.00 | 81 | 1013.9 |
| 20260503012106 | 58 | 181 | 3.0 | 6.0 | 0.00 | 0.00 | 0.00 | 81 | 1013.9 |
| 20260503011605 | 58 | 164 | 3.0 | 6.0 | 0.00 | 0.00 | 0.00 | 81 | 1013.9 |
| 20260503011106 | 58 | 125 | 2.0 | 3.0 | 0.00 | 0.00 | 0.00 | 81 | 1014.2 |
| 20260503010606 | 58 | 155 | 3.0 | 6.0 | 0.00 | 0.00 | 0.00 | 81 | 1014.2 |
| 20260503010105 | 58 | 161 | 3.0 | 7.0 | 0.00 | 0.00 | 0.00 | 81 | 1014.4 |
| 20260503005605 | 58 | 157 | 3.0 | 5.0 | 0.00 | 0.00 | 0.00 | 81 | 1014.3 |
| 20260503005106 | 59 | 135 | 2.0 | 7.0 | 0.00 | 0.00 | 0.00 | 81 | 1014.4 |
| 20260503004606 | 58 | 133 | 2.0 | 5.0 | 0.00 | 0.00 | 0.00 | 82 | 1014.4 |
| 20260503004105 | 58 | 143 | 3.0 | 7.0 | 0.00 | 0.00 | 0.00 | 82 | 1014.5 |
| 20260503003606 | 58 | 164 | 3.0 | 6.0 | 0.00 | 0.00 | 0.00 | 82 | 1014.6 |
| 20260503003105 | 58 | 154 | 3.0 | 5.0 | 0.00 | 0.00 | 0.00 | 82 | 1014.6 |
| 20260503002605 | 58 | 176 | 2.0 | 5.0 | 0.00 | 0.00 | 0.00 | 82 | 1014.5 |
| 20260503002105 | 58 | 165 | 1.0 | 5.0 | 0.00 | 0.00 | 0.00 | 82 | 1014.5 |
| 20260503001606 | 59 | 176 | 3.0 | 7.0 | 0.00 | 0.00 | 0.00 | 82 | 1014.5 |
| 20260503000106 | 58 | 170 | 3.0 | 7.0 | 0.00 | 0.00 | 0.00 | 83 | 1014.6 |
| 20260502235106 | 58 | 171 | 4.0 | 7.0 | 0.00 | 0.00 | 0.00 | 84 | 1015.1 |
| 20260502234606 | 58 | 162 | 3.0 | 6.0 | 0.00 | 0.00 | 0.00 | 84 | 1015.0 |
| 20260502233605 | 58 | 124 | 3.0 | 9.0 | 0.00 | 0.00 | 0.00 | 84 | 1015.1 |
| 20260502233106 | 58 | 76 | 5.0 | 9.0 | 0.00 | 0.00 | 0.00 | 85 | 1015.0 |
| 20260502232605 | 58 | 98 | 5.0 | 10.0 | 0.00 | 0.00 | 0.00 | 85 | 1015.0 |
| 20260502232105 | 58 | 107 | 6.0 | 9.0 | 0.00 | 0.00 | 0.00 | 85 | 1015.0 |
| 20260502231605 | 58 | 105 | 6.0 | 9.0 | 0.00 | 0.00 | 0.00 | 85 | 1015.1 |
| 20260502231106 | 58 | 104 | 4.0 | 9.0 | 0.00 | 0.00 | 0.00 | 85 | 1015.1 |
| 20260502230605 | 58 | 149 | 5.0 | 9.0 | 0.00 | 0.00 | 0.00 | 84 | 1015.1 |
| 20260502230106 | 58 | 131 | 3.0 | 8.0 | 0.00 | 0.00 | 0.00 | 84 | 1015.1 |
| 20260502225606 | 58 | 256 | 2.0 | 5.0 | 0.00 | 0.00 | 0.00 | 84 | 1015.3 |